Tracking 23757 objects as of 25-Oct-2021
HD Live streaming from Space Station
objects crossing your sky now

COSMOS 1174

Track COSMOS 1174 now!
10-day predictions
COSMOS 1174 is classified as:


NORAD ID: 11765
Int'l Code: 1980-030A
Perigee: 382.2 km
Apogee: 1,145.2 km
Inclination: 66.1 °
Period: 100.0 minutes
Semi major axis: 7134 km
RCS: 4.5129 m2 (large)
Launch date: April 18, 1980
Source: Commonwealth of Independent States (former USSR) (CIS)
Launch site: TYURATAM MISSILE AND SPACE COMPLEX (TTMTR)
aabbcc
Your satellite tracking list
Your tracking list is empty




NASA's NSSDC Master Catalog

Two Line Element Set (TLE):
1 11765U 80030A   21297.90593738  .00000960  00000-0  60731-4 0  9992
2 11765  66.0857 255.0419 0534719  67.6534 298.0327 14.40591857133271
Source of the keplerian elements: AFSPC